Regional Weather Roundup
Issued by NWS

Home | Current Version | Previous Version | Text Only | Print | Product List | Glossary Off
Versions: 1 2 3 4 5 6 7 8 9 10 11 12 13 14 15 16 17 18 19 20 21 22 23 24 25 26 27 28 29 30 31 32 33 34 35 36 37 38 39 40 41 42 43 44 45 46 47 48 49 50

168
ASUS43 KLMK 070310
RWRKY
KENTUCKY REGIONAL WEATHER ROUNDUP
NATIONAL WEATHER SERVICE LOUISVILLE KY
1000 PM EST SAT FEB 06 2016

NOTE "FAIR" INDICATES FEW OR NO CLOUDS BELOW 12,000 FEET
WITH NO SIGNIFICANT WEATHER AND/OR OBSTRUCTIONS TO VISIBILITY.

KYZ001>023-026-027-061>063-070>075-070400-
WESTERN AND SOUTH CENTRAL KENTUCKY

CITY           SKY/WX    TMP DP  RH WIND       PRES   REMARKS
PADUCAH        CLEAR     36  22  56 SW6       30.27R WCI  31
HENDERSON      CLEAR     36  21  55 S7        30.25S WCI  30
OWENSBORO      CLEAR     37  30  76 S6        30.27S WCI  32
HOPKINSVILLE   CLEAR     40  20  44 SW3       30.28S
BOWLING GREEN  PTCLDY    40  23  50 S3        30.29R
GLASGOW        CLEAR     36  24  62 CALM      30.27S
$$

KYZ024-025-028>034-038-045-046-053-070400-
NORTH CENTRAL KENTUCKY

CITY           SKY/WX    TMP DP  RH WIND       PRES   REMARKS
LOUISVILLE/SDF PTCLDY    41  24  51 SE3       30.25F
LOUISVILLE/LOU PTCLDY    38  26  62 CALM      30.26S
FORT KNOX      CLEAR     34  23  63 SW2       30.24F
$$

KYZ035>037-039>044-047>052-055>060-089>105-070400-
NORTHEAST KENTUCKY

CITY           SKY/WX    TMP DP  RH WIND       PRES   REMARKS
LEXINGTON      CLEAR     35  23  61 S5        30.25F WCI  31
COVINGTON      CLEAR     31  25  78 S6        30.23F WCI  25
FRANKFORT      CLEAR     31  23  72 CALM      30.24F
$$

KYZ054-064>069-076>088-106>120-070400-
SOUTHEAST KENTUCKY

CITY           SKY/WX    TMP DP  RH WIND       PRES   REMARKS
JACKSON        CLEAR     40  20  44 W3        30.25S
LONDON         CLEAR     33  23  66 CALM      30.26S
SOMERSET       CLEAR     32  25  74 CALM      30.29S
MIDDLESBORO    PTCLDY    33  27  79 CALM      30.28S
MONTICELLO     PTCLDY    28  25  88 CALM      30.29S
$$





USA.gov is the U.S. government's official web portal to all federal, state and local government web resources and services.